Location: Paderno d�Adda
(45.6667°N, 9.4333°E)
Time: 13:45:37
(UTC+00:00)

BREEZE-M TANK - Pass Details

Date: 19 September 2020
Orbit: 531 x 24755 km, 45.2° (Epoch: 29 October)

Event Time Altitude Azimuth Distance (km) Brightness Sun altitude
Rises 19:52:42 0° 259° (W) 6,222 8.4 -25.4°
Reaches altitude 10° 19:58:11 10° 260° (W) 3,647 7.0 -26.2°
Enters shadow 20:04:21 66° 244° (WSW) 781 3.0 -27.1°
